Year,Month,Day,Hour,Minute,Value (Times are PST for temperature in C)
2009,05,24,00,00,10.10
2009,05,24,00,01,10.10
2009,05,24,00,02,10.10
2009,05,24,00,03,10.10
2009,05,24,00,04,10.10
2009,05,24,00,05,10.10
2009,05,24,00,06,10.10
2009,05,24,00,07,10.10
2009,05,24,00,08,10.10
2009,05,24,00,09,10.00
2009,05,24,00,10,9.90
2009,05,24,00,11,9.80
2009,05,24,00,12,9.70
2009,05,24,00,13,9.70
2009,05,24,00,14,9.70
2009,05,24,00,15,9.60
2009,05,24,00,16,9.60
2009,05,24,00,17,9.60
2009,05,24,00,18,9.60
2009,05,24,00,19,9.60
2009,05,24,00,20,9.60
2009,05,24,00,21,9.70
2009,05,24,00,22,9.70
2009,05,24,00,23,9.70
2009,05,24,00,24,9.70
2009,05,24,00,25,9.70
2009,05,24,00,26,9.80
2009,05,24,00,27,9.80
2009,05,24,00,28,9.80
2009,05,24,00,29,9.80
2009,05,24,00,30,9.80
2009,05,24,00,31,9.80
2009,05,24,00,32,9.80
2009,05,24,00,33,9.80
2009,05,24,00,34,9.80
2009,05,24,00,35,9.80
2009,05,24,00,36,9.80
2009,05,24,00,37,9.80
2009,05,24,00,38,9.80
2009,05,24,00,39,9.80
2009,05,24,00,40,9.80
2009,05,24,00,41,9.70
2009,05,24,00,42,9.70
2009,05,24,00,43,9.70
2009,05,24,00,44,9.70
2009,05,24,00,45,9.70
2009,05,24,00,46,9.70
2009,05,24,00,47,9.70
2009,05,24,00,48,9.70
2009,05,24,00,49,9.70
2009,05,24,00,50,9.70
2009,05,24,00,51,9.70
2009,05,24,00,52,9.70
2009,05,24,00,53,9.70
2009,05,24,00,54,9.70
2009,05,24,00,55,9.70
2009,05,24,00,56,9.70
2009,05,24,00,57,9.70
2009,05,24,00,58,9.70
2009,05,24,00,59,9.70
2009,05,24,01,00,9.70
2009,05,24,01,01,9.70
2009,05,24,01,02,9.70
2009,05,24,01,03,9.60
2009,05,24,01,04,9.60
2009,05,24,01,05,9.60
2009,05,24,01,06,9.60
2009,05,24,01,07,9.60
2009,05,24,01,08,9.60
2009,05,24,01,09,9.60
2009,05,24,01,10,9.60
2009,05,24,01,11,9.50
2009,05,24,01,12,9.50
2009,05,24,01,13,9.50
2009,05,24,01,14,9.50
2009,05,24,01,15,9.50
2009,05,24,01,16,9.40
2009,05,24,01,17,9.40
2009,05,24,01,18,9.30
2009,05,24,01,19,9.30
2009,05,24,01,20,9.30
2009,05,24,01,21,9.20
2009,05,24,01,22,9.20
2009,05,24,01,23,9.20
2009,05,24,01,24,9.10
2009,05,24,01,25,9.00
2009,05,24,01,26,9.00
2009,05,24,01,27,9.00
2009,05,24,01,28,8.90
2009,05,24,01,29,8.90
2009,05,24,01,30,8.90
2009,05,24,01,31,8.80
2009,05,24,01,32,8.80
2009,05,24,01,33,8.80
2009,05,24,01,34,8.80
2009,05,24,01,35,8.70
2009,05,24,01,36,8.70
2009,05,24,01,37,8.70
2009,05,24,01,38,8.70
2009,05,24,01,39,8.70
2009,05,24,01,40,8.70
2009,05,24,01,41,8.70
2009,05,24,01,42,8.70
2009,05,24,01,43,8.60
2009,05,24,01,44,8.60
2009,05,24,01,45,8.60
2009,05,24,01,46,8.60
2009,05,24,01,47,8.60
2009,05,24,01,48,8.60
2009,05,24,01,49,8.50
2009,05,24,01,50,8.50
2009,05,24,01,51,8.50
2009,05,24,01,52,8.50
2009,05,24,01,53,8.50
2009,05,24,01,54,8.50
2009,05,24,01,55,8.50
2009,05,24,01,56,8.50
2009,05,24,01,57,8.40
2009,05,24,01,58,8.40
2009,05,24,01,59,8.40
2009,05,24,02,00,8.40
2009,05,24,02,01,8.40
2009,05,24,02,02,8.40
2009,05,24,02,03,8.40
2009,05,24,02,04,8.40
2009,05,24,02,05,8.40
2009,05,24,02,06,8.40
2009,05,24,02,07,8.40
2009,05,24,02,08,8.40
2009,05,24,02,09,8.40
2009,05,24,02,10,8.40
2009,05,24,02,11,8.40
2009,05,24,02,12,8.40
2009,05,24,02,13,8.40
2009,05,24,02,14,8.40
2009,05,24,02,15,8.40
2009,05,24,02,16,8.40
2009,05,24,02,17,8.40
2009,05,24,02,18,8.40
2009,05,24,02,19,8.40
2009,05,24,02,20,8.40
2009,05,24,02,21,8.40
2009,05,24,02,22,8.30
2009,05,24,02,23,8.30
2009,05,24,02,24,8.20
2009,05,24,02,25,8.20
2009,05,24,02,26,8.20
2009,05,24,02,27,8.20
2009,05,24,02,28,8.20
2009,05,24,02,29,8.10
2009,05,24,02,30,8.10
2009,05,24,02,31,8.00
2009,05,24,02,32,8.00
2009,05,24,02,33,8.00
2009,05,24,02,34,7.90
2009,05,24,02,35,7.90
2009,05,24,02,36,7.80
2009,05,24,02,37,7.80
2009,05,24,02,38,7.80
2009,05,24,02,39,7.80
2009,05,24,02,40,7.70
2009,05,24,02,41,7.70
2009,05,24,02,42,7.70
2009,05,24,02,43,7.60
2009,05,24,02,44,7.60
2009,05,24,02,45,7.60
2009,05,24,02,46,7.60
2009,05,24,02,47,7.50
2009,05,24,02,48,7.50
2009,05,24,02,49,7.50
2009,05,24,02,50,7.50
2009,05,24,02,51,7.40
2009,05,24,02,52,7.40
2009,05,24,02,53,7.40
2009,05,24,02,54,7.40
2009,05,24,02,55,7.40
2009,05,24,02,56,7.40
2009,05,24,02,57,7.40
2009,05,24,02,58,7.40
2009,05,24,02,59,7.40
2009,05,24,03,00,7.40
2009,05,24,03,01,7.40
2009,05,24,03,02,7.40
2009,05,24,03,03,7.40
2009,05,24,03,04,7.40
2009,05,24,03,05,7.40
2009,05,24,03,06,7.40
2009,05,24,03,07,7.40
2009,05,24,03,08,7.40
2009,05,24,03,09,7.40
2009,05,24,03,10,7.30
2009,05,24,03,11,7.30
2009,05,24,03,12,7.30
2009,05,24,03,13,7.30
2009,05,24,03,14,7.30
2009,05,24,03,15,7.30
2009,05,24,03,16,7.30
2009,05,24,03,17,7.30
2009,05,24,03,18,7.30
2009,05,24,03,19,7.30
2009,05,24,03,20,7.30
2009,05,24,03,21,7.30
2009,05,24,03,22,7.30
2009,05,24,03,23,7.30
2009,05,24,03,24,7.30
2009,05,24,03,25,7.30
2009,05,24,03,26,7.30
2009,05,24,03,27,7.30
2009,05,24,03,28,7.30
2009,05,24,03,29,7.30
2009,05,24,03,30,7.30
2009,05,24,03,31,7.30
2009,05,24,03,32,7.30
2009,05,24,03,33,7.30
2009,05,24,03,34,7.30
2009,05,24,03,35,7.30
2009,05,24,03,36,7.30
2009,05,24,03,37,7.30
2009,05,24,03,38,7.30
2009,05,24,03,39,7.30
2009,05,24,03,40,7.30
2009,05,24,03,41,7.30
2009,05,24,03,42,7.30
2009,05,24,03,43,7.30
2009,05,24,03,44,7.30
2009,05,24,03,45,7.30
2009,05,24,03,46,7.30
2009,05,24,03,47,7.30
2009,05,24,03,48,7.30
2009,05,24,03,49,7.30
2009,05,24,03,50,7.30
2009,05,24,03,51,7.30
2009,05,24,03,52,7.30
2009,05,24,03,53,7.30
2009,05,24,03,54,7.30
2009,05,24,03,55,7.20
2009,05,24,03,56,7.20
2009,05,24,03,57,7.20
2009,05,24,03,58,7.10
2009,05,24,03,59,7.10
2009,05,24,04,00,7.00
2009,05,24,04,01,7.00
2009,05,24,04,02,7.00
2009,05,24,04,03,6.90
2009,05,24,04,04,6.90
2009,05,24,04,05,6.80
2009,05,24,04,06,6.80
2009,05,24,04,07,6.80
2009,05,24,04,08,6.80
2009,05,24,04,09,6.80
2009,05,24,04,10,6.80
2009,05,24,04,11,6.80
2009,05,24,04,12,6.80
2009,05,24,04,13,6.80
2009,05,24,04,14,6.80
2009,05,24,04,15,6.80
2009,05,24,04,16,6.80
2009,05,24,04,17,6.80
2009,05,24,04,18,6.80
2009,05,24,04,19,6.80
2009,05,24,04,20,6.80
2009,05,24,04,21,6.80
2009,05,24,04,22,6.80
2009,05,24,04,23,6.80
2009,05,24,04,24,6.80
2009,05,24,04,25,6.80
2009,05,24,04,26,6.80
2009,05,24,04,27,6.80
2009,05,24,04,28,6.80
2009,05,24,04,29,6.80
2009,05,24,04,30,6.80
2009,05,24,04,31,6.80
2009,05,24,04,32,6.80
2009,05,24,04,33,6.70
2009,05,24,04,34,6.70
2009,05,24,04,35,6.70
2009,05,24,04,36,6.70
2009,05,24,04,37,6.70
2009,05,24,04,38,6.70
2009,05,24,04,39,6.70
2009,05,24,04,40,6.70
2009,05,24,04,41,6.70
2009,05,24,04,42,6.70
2009,05,24,04,43,6.70
2009,05,24,04,44,6.70
2009,05,24,04,45,6.70
2009,05,24,04,46,6.70
2009,05,24,04,47,6.70
2009,05,24,04,48,6.80
2009,05,24,04,49,6.80
2009,05,24,04,50,6.80
2009,05,24,04,51,6.80
2009,05,24,04,52,6.80
2009,05,24,04,53,6.80
2009,05,24,04,54,6.80
2009,05,24,04,55,6.80
2009,05,24,04,56,6.80
2009,05,24,04,57,6.80
2009,05,24,04,58,6.80
2009,05,24,04,59,6.70
2009,05,24,05,00,6.70
2009,05,24,05,01,6.70
2009,05,24,05,02,6.70
2009,05,24,05,03,6.60
2009,05,24,05,04,6.60
2009,05,24,05,05,6.60
2009,05,24,05,06,6.60
2009,05,24,05,07,6.60
2009,05,24,05,08,6.60
2009,05,24,05,09,6.60
2009,05,24,05,10,6.60
2009,05,24,05,11,6.60
2009,05,24,05,12,6.60
2009,05,24,05,13,6.60
2009,05,24,05,14,6.60
2009,05,24,05,15,6.60
2009,05,24,05,16,6.60
2009,05,24,05,17,6.60
2009,05,24,05,18,6.40
2009,05,24,05,19,6.40
2009,05,24,05,20,6.40
2009,05,24,05,21,6.40
2009,05,24,05,22,6.40
2009,05,24,05,23,6.40
2009,05,24,05,24,6.40
2009,05,24,05,25,6.40
2009,05,24,05,26,6.40
2009,05,24,05,27,6.40
2009,05,24,05,28,6.40
2009,05,24,05,29,6.40
2009,05,24,05,30,6.40
2009,05,24,05,31,6.40
2009,05,24,05,32,6.40
2009,05,24,05,33,6.40
2009,05,24,05,34,6.40
2009,05,24,05,35,6.40
2009,05,24,05,36,6.40
2009,05,24,05,37,6.30
2009,05,24,05,38,6.30
2009,05,24,05,39,6.30
2009,05,24,05,40,6.30
2009,05,24,05,41,6.30
2009,05,24,05,42,6.30
2009,05,24,05,43,6.40
2009,05,24,05,44,6.40
2009,05,24,05,45,6.40
2009,05,24,05,46,6.40
2009,05,24,05,47,6.40
2009,05,24,05,48,6.40
2009,05,24,05,49,6.40
2009,05,24,05,50,6.30
2009,05,24,05,51,6.30
2009,05,24,05,52,6.30
2009,05,24,05,53,6.20
2009,05,24,05,54,6.20
2009,05,24,05,55,6.20
2009,05,24,05,56,6.20
2009,05,24,05,57,6.20
2009,05,24,05,58,6.20
2009,05,24,05,59,6.20
2009,05,24,06,00,6.20
2009,05,24,06,01,6.20
2009,05,24,06,02,6.20
2009,05,24,06,03,6.20
2009,05,24,06,04,6.20
2009,05,24,06,05,6.20
2009,05,24,06,06,6.20
2009,05,24,06,07,6.20
2009,05,24,06,08,6.20
2009,05,24,06,09,6.30
2009,05,24,06,10,6.30
2009,05,24,06,11,6.30
2009,05,24,06,12,6.30
2009,05,24,06,13,6.30
2009,05,24,06,14,6.40
2009,05,24,06,15,6.40
2009,05,24,06,16,6.40
2009,05,24,06,17,6.40
2009,05,24,06,18,6.40
2009,05,24,06,19,6.50
2009,05,24,06,20,6.60
2009,05,24,06,21,6.60
2009,05,24,06,22,6.60
2009,05,24,06,23,6.60
2009,05,24,06,24,6.60
2009,05,24,06,25,6.70
2009,05,24,06,26,6.70
2009,05,24,06,27,6.80
2009,05,24,06,28,6.80
2009,05,24,06,29,6.80
2009,05,24,06,30,6.80
2009,05,24,06,31,6.90
2009,05,24,06,32,6.90
2009,05,24,06,33,7.00
2009,05,24,06,34,7.00
2009,05,24,06,35,7.00
2009,05,24,06,36,7.10
2009,05,24,06,37,7.10
2009,05,24,06,38,7.10
2009,05,24,06,39,7.10
2009,05,24,06,40,7.20
2009,05,24,06,41,7.20
2009,05,24,06,42,7.20
2009,05,24,06,43,7.30
2009,05,24,06,44,7.30
2009,05,24,06,45,7.30
2009,05,24,06,46,7.40
2009,05,24,06,47,7.50
2009,05,24,06,48,7.50
2009,05,24,06,49,7.60
2009,05,24,06,50,7.60
2009,05,24,06,51,7.60
2009,05,24,06,52,7.70
2009,05,24,06,53,7.80
2009,05,24,06,54,7.80
2009,05,24,06,55,7.90
2009,05,24,06,56,7.90
2009,05,24,06,57,8.00
2009,05,24,06,58,8.00
2009,05,24,06,59,8.10
2009,05,24,07,00,8.20
2009,05,24,07,01,8.30
2009,05,24,07,02,8.40
2009,05,24,07,03,8.60
2009,05,24,07,04,8.70
2009,05,24,07,05,8.80
2009,05,24,07,06,8.90
2009,05,24,07,07,9.00
2009,05,24,07,08,9.10
2009,05,24,07,09,9.20
2009,05,24,07,10,9.20
2009,05,24,07,11,9.30
2009,05,24,07,12,9.40
2009,05,24,07,13,9.50
2009,05,24,07,14,9.60
2009,05,24,07,15,9.70
2009,05,24,07,16,9.80
2009,05,24,07,17,9.90
2009,05,24,07,18,9.90
2009,05,24,07,19,10.00
2009,05,24,07,20,10.10
2009,05,24,07,21,10.10
2009,05,24,07,22,10.20
2009,05,24,07,23,10.20
2009,05,24,07,24,10.30
2009,05,24,07,25,10.40
2009,05,24,07,26,10.40
2009,05,24,07,27,10.60
2009,05,24,07,28,10.60
2009,05,24,07,29,10.70
2009,05,24,07,30,10.80
2009,05,24,07,31,10.90
2009,05,24,07,32,11.00
2009,05,24,07,33,11.10
2009,05,24,07,34,11.10
2009,05,24,07,35,11.20
2009,05,24,07,36,11.30
2009,05,24,07,37,11.30
2009,05,24,07,38,11.40
2009,05,24,07,39,11.40
2009,05,24,07,40,11.50
2009,05,24,07,41,11.60
2009,05,24,07,42,11.70
2009,05,24,07,43,11.70
2009,05,24,07,44,11.70
2009,05,24,07,45,11.70
2009,05,24,07,46,11.70
2009,05,24,07,47,11.80
2009,05,24,07,48,11.80
2009,05,24,07,49,11.80
2009,05,24,07,50,11.80
2009,05,24,07,51,11.90
2009,05,24,07,52,11.90
2009,05,24,07,53,12.00
2009,05,24,07,54,12.10
2009,05,24,07,55,12.10
2009,05,24,07,56,12.20
2009,05,24,07,57,12.20
2009,05,24,07,58,12.30
2009,05,24,07,59,12.30
2009,05,24,08,00,12.40
2009,05,24,08,01,12.50
2009,05,24,08,02,12.50
2009,05,24,08,03,12.60
2009,05,24,08,04,12.70
2009,05,24,08,05,12.70
2009,05,24,08,06,12.80
2009,05,24,08,07,12.90
2009,05,24,08,08,13.00
2009,05,24,08,09,13.10
2009,05,24,08,10,13.20
2009,05,24,08,11,13.30
2009,05,24,08,12,13.30
2009,05,24,08,13,13.30
2009,05,24,08,14,13.40
2009,05,24,08,15,13.50
2009,05,24,08,16,13.50
2009,05,24,08,17,13.50
2009,05,24,08,18,13.50
2009,05,24,08,19,13.50
2009,05,24,08,20,13.50
2009,05,24,08,21,13.40
2009,05,24,08,22,13.40
2009,05,24,08,23,13.50
2009,05,24,08,24,13.50
2009,05,24,08,25,13.60
2009,05,24,08,26,13.60
2009,05,24,08,27,13.70
2009,05,24,08,28,13.70
2009,05,24,08,29,13.70
2009,05,24,08,30,13.70
2009,05,24,08,31,13.70
2009,05,24,08,32,13.60
2009,05,24,08,33,13.60
2009,05,24,08,34,13.60
2009,05,24,08,35,13.70
2009,05,24,08,36,13.70
2009,05,24,08,37,13.80
2009,05,24,08,38,13.90
2009,05,24,08,39,13.90
2009,05,24,08,40,14.00
2009,05,24,08,41,14.10
2009,05,24,08,42,14.20
2009,05,24,08,43,14.40
2009,05,24,08,44,14.50
2009,05,24,08,45,14.60
2009,05,24,08,46,14.70
2009,05,24,08,47,14.80
2009,05,24,08,48,14.80
2009,05,24,08,49,14.80
2009,05,24,08,50,14.80
2009,05,24,08,51,14.80
2009,05,24,08,52,14.80
2009,05,24,08,53,14.70
2009,05,24,08,54,14.70
2009,05,24,08,55,14.70
2009,05,24,08,56,14.70
2009,05,24,08,57,14.70
2009,05,24,08,58,14.70
2009,05,24,08,59,14.70
2009,05,24,09,00,14.70
2009,05,24,09,01,14.80
2009,05,24,09,02,14.80
2009,05,24,09,03,14.80
2009,05,24,09,04,14.80
2009,05,24,09,05,14.90
2009,05,24,09,06,15.00
2009,05,24,09,07,15.00
2009,05,24,09,08,14.90
2009,05,24,09,09,15.00
2009,05,24,09,10,15.00
2009,05,24,09,11,15.10
2009,05,24,09,12,15.10
2009,05,24,09,13,15.10
2009,05,24,09,14,15.10
2009,05,24,09,15,15.20
2009,05,24,09,16,15.20
2009,05,24,09,17,15.20
2009,05,24,09,18,15.30
2009,05,24,09,19,15.10
2009,05,24,09,20,15.10
2009,05,24,09,21,15.00
2009,05,24,09,22,15.00
2009,05,24,09,23,14.90
2009,05,24,09,24,14.90
2009,05,24,09,25,15.00
2009,05,24,09,26,15.10
2009,05,24,09,27,15.20
2009,05,24,09,28,15.30
2009,05,24,09,29,15.30
2009,05,24,09,30,15.40
2009,05,24,09,31,15.40
2009,05,24,09,32,15.50
2009,05,24,09,33,15.50
2009,05,24,09,34,15.40
2009,05,24,09,35,15.30
2009,05,24,09,36,15.30
2009,05,24,09,37,15.30
2009,05,24,09,38,15.30
2009,05,24,09,39,15.30
2009,05,24,09,40,15.30
2009,05,24,09,41,15.40
2009,05,24,09,42,15.40
2009,05,24,09,43,15.50
2009,05,24,09,44,15.50
2009,05,24,09,45,15.40
2009,05,24,09,46,15.40
2009,05,24,09,47,15.30
2009,05,24,09,48,15.30
2009,05,24,09,49,15.10
2009,05,24,09,50,15.00
2009,05,24,09,51,14.90
2009,05,24,09,52,14.90
2009,05,24,09,53,14.90
2009,05,24,09,54,15.00
2009,05,24,09,55,15.00
2009,05,24,09,56,15.00
2009,05,24,09,57,14.80
2009,05,24,09,58,14.60
2009,05,24,09,59,14.50
2009,05,24,10,00,14.40
2009,05,24,10,01,14.40
2009,05,24,10,02,14.40
2009,05,24,10,03,14.40
2009,05,24,10,04,14.30
2009,05,24,10,05,14.20
2009,05,24,10,06,14.30
2009,05,24,10,07,14.30
2009,05,24,10,08,14.30
2009,05,24,10,09,14.20
2009,05,24,10,10,14.20
2009,05,24,10,11,14.20
2009,05,24,10,12,14.20
2009,05,24,10,13,14.20
2009,05,24,10,14,14.20
2009,05,24,10,15,14.10
2009,05,24,10,16,14.10
2009,05,24,10,17,14.00
2009,05,24,10,18,13.90
2009,05,24,10,19,13.90
2009,05,24,10,20,13.90
2009,05,24,10,21,14.00
2009,05,24,10,22,14.00
2009,05,24,10,23,13.90
2009,05,24,10,24,13.90
2009,05,24,10,25,13.90
2009,05,24,10,26,13.90
2009,05,24,10,27,13.90
2009,05,24,10,28,13.90
2009,05,24,10,29,14.00
2009,05,24,10,30,14.10
2009,05,24,10,31,14.10
2009,05,24,10,32,14.20
2009,05,24,10,33,14.20
2009,05,24,10,34,14.20
2009,05,24,10,35,14.20
2009,05,24,10,36,14.20
2009,05,24,10,37,14.20
2009,05,24,10,38,14.20
2009,05,24,10,39,14.40
2009,05,24,10,40,14.50
2009,05,24,10,41,14.60
2009,05,24,10,42,14.60
2009,05,24,10,43,14.70
2009,05,24,10,44,14.70
2009,05,24,10,45,14.80
2009,05,24,10,46,14.80
2009,05,24,10,47,14.80
2009,05,24,10,48,14.70
2009,05,24,10,49,14.60
2009,05,24,10,50,14.50
2009,05,24,10,51,14.50
2009,05,24,10,52,14.40
2009,05,24,10,53,14.30
2009,05,24,10,54,14.20
2009,05,24,10,55,14.20
2009,05,24,10,56,14.20
2009,05,24,10,57,14.20
2009,05,24,10,58,14.30
2009,05,24,10,59,14.30
2009,05,24,11,00,14.30
2009,05,24,11,01,14.20
2009,05,24,11,02,14.20
2009,05,24,11,03,14.20
2009,05,24,11,04,14.20
2009,05,24,11,05,14.20
2009,05,24,11,06,14.20
2009,05,24,11,07,14.20
2009,05,24,11,08,14.20
2009,05,24,11,09,14.20
2009,05,24,11,10,14.30
2009,05,24,11,11,14.40
2009,05,24,11,12,14.40
2009,05,24,11,13,14.50
2009,05,24,11,14,14.50
2009,05,24,11,15,14.60
2009,05,24,11,16,14.60
2009,05,24,11,17,14.70
2009,05,24,11,18,14.70
2009,05,24,11,19,14.80
2009,05,24,11,20,14.70
2009,05,24,11,21,14.70
2009,05,24,11,22,14.70
2009,05,24,11,23,14.80
2009,05,24,11,24,14.80
2009,05,24,11,25,14.80
2009,05,24,11,26,14.70
2009,05,24,11,27,14.60
2009,05,24,11,28,14.50
2009,05,24,11,29,14.50
2009,05,24,11,30,14.50
2009,05,24,11,31,14.60
2009,05,24,11,32,14.70
2009,05,24,11,33,14.70
2009,05,24,11,34,14.60
2009,05,24,11,35,14.70
2009,05,24,11,36,14.70
2009,05,24,11,37,14.70
2009,05,24,11,38,14.80
2009,05,24,11,39,14.80
2009,05,24,11,40,14.90
2009,05,24,11,41,14.90
2009,05,24,11,42,14.90
2009,05,24,11,43,14.90
2009,05,24,11,44,14.90
2009,05,24,11,45,14.90
2009,05,24,11,46,14.80
2009,05,24,11,47,14.80
2009,05,24,11,48,14.80
2009,05,24,11,49,14.70
2009,05,24,11,50,14.60
2009,05,24,11,51,14.60
2009,05,24,11,52,14.60
2009,05,24,11,53,14.60
2009,05,24,11,54,14.60
2009,05,24,11,55,14.70
2009,05,24,11,56,14.80
2009,05,24,11,57,15.00
2009,05,24,11,58,15.10
2009,05,24,11,59,15.20
2009,05,24,12,00,15.20
2009,05,24,12,01,15.10
2009,05,24,12,02,15.00
2009,05,24,12,03,15.00
2009,05,24,12,04,15.00
2009,05,24,12,05,15.00
2009,05,24,12,06,14.80
2009,05,24,12,07,14.80
2009,05,24,12,08,14.80
2009,05,24,12,09,14.80
2009,05,24,12,10,14.80
2009,05,24,12,11,15.00
2009,05,24,12,12,15.10
2009,05,24,12,13,15.00
2009,05,24,12,14,15.00
2009,05,24,12,15,14.90
2009,05,24,12,16,14.80
2009,05,24,12,17,14.80
2009,05,24,12,18,14.90
2009,05,24,12,19,15.00
2009,05,24,12,20,15.10
2009,05,24,12,21,15.00
2009,05,24,12,22,15.00
2009,05,24,12,23,15.10
2009,05,24,12,24,15.20
2009,05,24,12,25,15.30
2009,05,24,12,26,15.30
2009,05,24,12,27,15.40
2009,05,24,12,28,15.40
2009,05,24,12,29,15.30
2009,05,24,12,30,15.30
2009,05,24,12,31,15.40
2009,05,24,12,32,15.60
2009,05,24,12,33,15.80
2009,05,24,12,34,15.90
2009,05,24,12,35,15.80
2009,05,24,12,36,15.80
2009,05,24,12,37,15.60
2009,05,24,12,38,15.40
2009,05,24,12,39,15.30
2009,05,24,12,40,15.30
2009,05,24,12,41,15.10
2009,05,24,12,42,15.10
2009,05,24,12,43,15.00
2009,05,24,12,44,15.00
2009,05,24,12,45,15.30
2009,05,24,12,46,15.50
2009,05,24,12,47,15.50
2009,05,24,12,48,15.40
2009,05,24,12,49,15.30
2009,05,24,12,50,15.40
2009,05,24,12,51,15.40
2009,05,24,12,52,15.30
2009,05,24,12,53,15.40
2009,05,24,12,54,15.40
2009,05,24,12,55,15.50
2009,05,24,12,56,15.60
2009,05,24,12,57,15.60
2009,05,24,12,58,15.50
2009,05,24,12,59,15.40
2009,05,24,13,00,15.50
2009,05,24,13,01,15.60
2009,05,24,13,02,15.80
2009,05,24,13,03,15.80
2009,05,24,13,04,15.80
2009,05,24,13,05,15.90
2009,05,24,13,06,16.20
2009,05,24,13,07,16.20
2009,05,24,13,08,16.30
2009,05,24,13,09,16.40
2009,05,24,13,10,16.40
2009,05,24,13,11,16.40
2009,05,24,13,12,16.40
2009,05,24,13,13,16.50
2009,05,24,13,14,16.60
2009,05,24,13,15,16.50
2009,05,24,13,16,16.20
2009,05,24,13,17,16.00
2009,05,24,13,18,16.00
2009,05,24,13,19,16.10
2009,05,24,13,20,16.10
2009,05,24,13,21,16.10
2009,05,24,13,22,16.20
2009,05,24,13,23,16.40
2009,05,24,13,24,16.40
2009,05,24,13,25,16.60
2009,05,24,13,26,16.60
2009,05,24,13,27,16.60
2009,05,24,13,28,16.70
2009,05,24,13,29,16.90
2009,05,24,13,30,17.00
2009,05,24,13,31,17.00
2009,05,24,13,32,17.00
2009,05,24,13,33,17.10
2009,05,24,13,34,17.10
2009,05,24,13,35,17.20
2009,05,24,13,36,17.20
2009,05,24,13,37,17.00
2009,05,24,13,38,17.00
2009,05,24,13,39,17.10
2009,05,24,13,40,17.00
2009,05,24,13,41,16.90
2009,05,24,13,42,16.90
2009,05,24,13,43,16.90
2009,05,24,13,44,16.90
2009,05,24,13,45,16.70
2009,05,24,13,46,16.70
2009,05,24,13,47,16.70
2009,05,24,13,48,16.80
2009,05,24,13,49,16.80
2009,05,24,13,50,16.80
2009,05,24,13,51,17.00
2009,05,24,13,52,17.00
2009,05,24,13,53,17.00
2009,05,24,13,54,16.90
2009,05,24,13,55,16.70
2009,05,24,13,56,16.60
2009,05,24,13,57,16.60
2009,05,24,13,58,16.50
2009,05,24,13,59,16.40
2009,05,24,14,00,16.40
2009,05,24,14,01,16.60
2009,05,24,14,02,16.80
2009,05,24,14,03,16.80
2009,05,24,14,04,16.90
2009,05,24,14,05,16.90
2009,05,24,14,06,17.00
2009,05,24,14,07,16.80
2009,05,24,14,08,16.70
2009,05,24,14,09,16.70
2009,05,24,14,10,16.80
2009,05,24,14,11,16.90
2009,05,24,14,12,17.00
2009,05,24,14,13,16.90
2009,05,24,14,14,16.80
2009,05,24,14,15,16.70
2009,05,24,14,16,16.70
2009,05,24,14,17,16.80
2009,05,24,14,18,16.80
2009,05,24,14,19,16.60
2009,05,24,14,20,16.40
2009,05,24,14,21,16.40
2009,05,24,14,22,16.30
2009,05,24,14,23,16.40
2009,05,24,14,24,16.40
2009,05,24,14,25,16.40
2009,05,24,14,26,16.40
2009,05,24,14,27,16.30
2009,05,24,14,28,16.30
2009,05,24,14,29,16.30
2009,05,24,14,30,16.20
2009,05,24,14,31,16.20
2009,05,24,14,32,16.10
2009,05,24,14,33,16.00
2009,05,24,14,34,15.90
2009,05,24,14,35,15.90
2009,05,24,14,36,16.00
2009,05,24,14,37,16.10
2009,05,24,14,38,16.20
2009,05,24,14,39,16.10
2009,05,24,14,40,16.10
2009,05,24,14,41,16.10
2009,05,24,14,42,16.10
2009,05,24,14,43,15.90
2009,05,24,14,44,15.80
2009,05,24,14,45,15.80
2009,05,24,14,46,15.70
2009,05,24,14,47,15.70
2009,05,24,14,48,15.60
2009,05,24,14,49,15.70
2009,05,24,14,50,15.70
2009,05,24,14,51,15.70
2009,05,24,14,52,15.80
2009,05,24,14,53,15.80
2009,05,24,14,54,15.80
2009,05,24,14,55,15.80
2009,05,24,14,56,15.80
2009,05,24,14,57,15.80
2009,05,24,14,58,15.80
2009,05,24,14,59,15.90
2009,05,24,15,00,16.00
2009,05,24,15,01,16.10
2009,05,24,15,02,16.10
2009,05,24,15,03,16.10
2009,05,24,15,04,16.10
2009,05,24,15,05,16.10
2009,05,24,15,06,16.20
2009,05,24,15,07,16.30
2009,05,24,15,08,16.30
2009,05,24,15,09,16.40
2009,05,24,15,10,16.40
2009,05,24,15,11,16.30
2009,05,24,15,12,16.10
2009,05,24,15,13,15.90
2009,05,24,15,14,15.80
2009,05,24,15,15,15.80
2009,05,24,15,16,15.80
2009,05,24,15,17,15.80
2009,05,24,15,18,15.80
2009,05,24,15,19,15.80
2009,05,24,15,20,15.80
2009,05,24,15,21,15.80
2009,05,24,15,22,15.80
2009,05,24,15,23,15.80
2009,05,24,15,24,15.90
2009,05,24,15,25,16.00
2009,05,24,15,26,16.10
2009,05,24,15,27,16.10
2009,05,24,15,28,16.10
2009,05,24,15,29,15.90
2009,05,24,15,30,15.90
2009,05,24,15,31,15.90
2009,05,24,15,32,15.90
2009,05,24,15,33,15.90
2009,05,24,15,34,15.90
2009,05,24,15,35,15.80
2009,05,24,15,36,15.80
2009,05,24,15,37,15.90
2009,05,24,15,38,15.90
2009,05,24,15,39,16.00
2009,05,24,15,40,16.10
2009,05,24,15,41,16.30
2009,05,24,15,42,16.50
2009,05,24,15,43,16.70
2009,05,24,15,44,16.70
2009,05,24,15,45,16.70
2009,05,24,15,46,16.70
2009,05,24,15,47,16.70
2009,05,24,15,48,16.70
2009,05,24,15,49,16.60
2009,05,24,15,50,16.30
2009,05,24,15,51,16.00
2009,05,24,15,52,15.80
2009,05,24,15,53,15.80
2009,05,24,15,54,15.70
2009,05,24,15,55,15.60
2009,05,24,15,56,15.70
2009,05,24,15,57,15.80
2009,05,24,15,58,16.00
2009,05,24,15,59,16.20
2009,05,24,16,00,16.30
2009,05,24,16,01,16.50
2009,05,24,16,02,16.60
2009,05,24,16,03,16.70
2009,05,24,16,04,16.70
2009,05,24,16,05,16.70
2009,05,24,16,06,16.70
2009,05,24,16,07,16.80
2009,05,24,16,08,16.90
2009,05,24,16,09,17.00
2009,05,24,16,10,17.10
2009,05,24,16,11,17.20
2009,05,24,16,12,17.30
2009,05,24,16,13,17.20
2009,05,24,16,14,17.10
2009,05,24,16,15,17.10
2009,05,24,16,16,17.20
2009,05,24,16,17,17.20
2009,05,24,16,18,17.30
2009,05,24,16,19,17.30
2009,05,24,16,20,17.30
2009,05,24,16,21,17.40
2009,05,24,16,22,17.50
2009,05,24,16,23,17.60
2009,05,24,16,24,17.60
2009,05,24,16,25,17.60
2009,05,24,16,26,17.60
2009,05,24,16,27,17.70
2009,05,24,16,28,17.90
2009,05,24,16,29,17.90
2009,05,24,16,30,18.10
2009,05,24,16,31,18.10
2009,05,24,16,32,18.20
2009,05,24,16,33,18.20
2009,05,24,16,34,18.30
2009,05,24,16,35,18.40
2009,05,24,16,36,18.50
2009,05,24,16,37,18.50
2009,05,24,16,38,18.60
2009,05,24,16,39,18.70
2009,05,24,16,40,18.80
2009,05,24,16,41,18.80
2009,05,24,16,42,18.80
2009,05,24,16,43,18.90
2009,05,24,16,44,18.90
2009,05,24,16,45,19.10
2009,05,24,16,46,19.20
2009,05,24,16,47,19.30
2009,05,24,16,48,19.20
2009,05,24,16,49,19.10
2009,05,24,16,50,19.10
2009,05,24,16,51,19.10
2009,05,24,16,52,19.00
2009,05,24,16,53,18.90
2009,05,24,16,54,18.90
2009,05,24,16,55,19.00
2009,05,24,16,56,19.10
2009,05,24,16,57,19.20
2009,05,24,16,58,19.30
2009,05,24,16,59,19.40
2009,05,24,17,00,19.50
2009,05,24,17,01,19.60
2009,05,24,17,02,19.70
2009,05,24,17,03,19.90
2009,05,24,17,04,20.00
2009,05,24,17,05,20.20
2009,05,24,17,06,20.30
2009,05,24,17,07,20.30
2009,05,24,17,08,20.40
2009,05,24,17,09,20.40
2009,05,24,17,10,20.40
2009,05,24,17,11,20.40
2009,05,24,17,12,20.30
2009,05,24,17,13,20.20
2009,05,24,17,14,20.20
2009,05,24,17,15,20.20
2009,05,24,17,16,20.20
2009,05,24,17,17,20.20
2009,05,24,17,18,20.30
2009,05,24,17,19,20.40
2009,05,24,17,20,20.50
2009,05,24,17,21,20.60
2009,05,24,17,22,20.70
2009,05,24,17,23,20.80
2009,05,24,17,24,20.90
2009,05,24,17,25,20.90
2009,05,24,17,26,21.00
2009,05,24,17,27,21.10
2009,05,24,17,28,21.20
2009,05,24,17,29,21.30
2009,05,24,17,30,21.50
2009,05,24,17,31,21.60
2009,05,24,17,32,21.60
2009,05,24,17,33,21.80
2009,05,24,17,34,21.90
2009,05,24,17,35,22.10
2009,05,24,17,36,22.20
2009,05,24,17,37,22.30
2009,05,24,17,38,22.50